星链-33789 (STARLINK-33789)

导读 | 豆包AI

STARLINK-33789是美国于2025年4月25日发射的星链卫星,隶属于SpaceX公司开发的星链星座项目。星链项目旨在构建全球卫星互联网星座,为全球提供高速低延迟网络覆盖,尤其是偏远地区提供网络接入服务。该卫星入轨后参与星链星座组网,进一步扩充星链星座规模,提升全球卫星互联网服务能力。

基本信息
目录编号:
63657
目录名称:
STARLINK-33789
国际标识:
2025-083Z
轨道中心:
EARTH
卫星名称:
星链-33789
卫星全名:
星链-33789 (STARLINK-33789)
卫星状态:
在轨 (已飞行323 天)
发射日期:
2025-04-25 UTC
国别 :
美国 (US)
星等 :
--
轨道信息
数据来源 国际轨道数据
星历时间: 2026-03-14T18:22:14+0800
11小时前
查看轨道信息
半长轴: 6861.141km
偏心率: 0.0002064
轨道倾角: 43.001°
近地点辐角 271.682°
升交点赤经 338.293°
平近点角 88.379°
近地点: 481.587km
远地点: 484.421km
周期: 94.266分钟
每日圈数: 15.275951
详细信息
固有亮度:
5
最大亮度:
2.5
卫星平台:
Starlink V1.0
覆盖范围:
全球
运营商:
太空探索技术公司
运营商所在国:
美国
制造商(研发单位):
太空探索技术公司
制造商所在国:
美国
使用方式:
暂无
卫星简介
Starlink 计划是 SpaceX 推出的全球卫星互联网项目,通过发射低轨道卫星,为全球尤其是偏远地区提供高速、低延迟的互联网服务。自 2019 年起,Starlink 已部署数千颗卫星,旨在缩小全球数字鸿沟,推动互联网普及。该项目还为军事、航空等行业提供通信支持,带来广泛经济效益。
2D轨道图
3D轨道图
轨道高度分析图
轨道倾角分析图
轨道综合分析图
查看轨道综合分析图